STARLINK-1691 (46373 NORAD) Tracking and Keplerian Element Data

This shows tracking and keplerian element data for the satellite.

Feedback or suggestion? Click here.




ElementValue
Catalog46373
NameSTARLINK-1691
Epoch Orbit178
Epoch Day268.91668981
Epoch Year2020
RAAN323.7676
Inclination53.0013
Eccentricity0.0001104
Argument of Perigee316.7983
Mean Anonmoly244.6607
Mean Motion15.62766449
Decay Rate0.00026363
L11 46373U 20062BA 20268.91668981 .00026363 00000-0 29265-3 0 9996
L22 46373 53.0013 323.7676 0001104 316.7983 244.6607 15.62766449 1789

Live tracking and technical data element details for STARLINK-1691 (NORAD 46373). STARLINK-1691 can be tracked NOW for your location showing map with azimuth and elevation plus other details from your city location.

Track the satellite on the map from your city or location and see movement details for azimuth, elevation, latitude, longitude, range, height, and movement on the map or in text.







IsCatalogInMostPopularTable: catalog: 46373, numindb: 5
Update: records affected: 1



GetName: 46373 STARLINK-1691

Hit Count: updated at: Sat, 26 Sep 2020 14:04:05 GMT